Satellite: NOAA-11 Catalog number: 19531 Epoch time: 13311.34374330 Element set: 583 Inclination: 098.7023 deg RA of node: 030.9388 deg Eccentricity: 0.0010989 Arg of perigee: 206.9690 deg Mean anomaly: 153.0914 deg Mean motion: 14.15036103 rev/day Decay rate: 7.4e-07 rev/day^2 Epoch rev: 29636 Checksum: 287
Satellite: NOAA-12 Catalog number: 21263 Epoch time: 13311.52186449 Element set: 36 Inclination: 098.6865 deg RA of node: 335.6955 deg Eccentricity: 0.0014509 Arg of perigee: 159.6283 deg Mean anomaly: 001.0839 deg Mean motion: 14.25596158 rev/day Decay rate: 1.11e-06 rev/day^2 Epoch rev: 16897 Checksum: 316
Satellite: MET-3/5 Catalog number: 21655 Epoch time: 13311.52448766 Element set: 826 Inclination: 082.5542 deg RA of node: 153.0372 deg Eccentricity: 0.0014216 Arg of perigee: 129.4613 deg Mean anomaly: 230.7769 deg Mean motion: 13.17046212 rev/day Decay rate: 4.11e-06 rev/day^2 Epoch rev: 6880 Checksum: 280
Satellite: MET-2/21 Catalog number: 22782 Epoch time: 13311.14403336 Element set: 889 Inclination: 082.5488 deg RA of node: 349.4905 deg Eccentricity: 0.0023216 Arg of perigee: 165.5442 deg Mean anomaly: 218.8635 deg Mean motion: 13.83714845 rev/day Decay rate: 2.2e-07 rev/day^2 Epoch rev: 1941 Checksum: 301
Satellite: OKEAN-4 Catalog number: 23317 Epoch time: 13311.21692425 Element set: 369 Inclination: 082.5382 deg RA of node: 275.8933 deg Eccentricity: 0.0022784 Arg of perigee: 112.8946 deg Mean anomaly: 308.1876 deg Mean motion: 14.84740513 rev/day Decay rate: 1.885e-05 rev/day^2 Epoch rev: 3016 Checksum: 308
Satellite: NOAA-14 Catalog number: 23455 Epoch time: 13311.44099514 Element set: 514 Inclination: 098.7957 deg RA of node: 033.6574 deg Eccentricity: 0.0008521 Arg of perigee: 313.9563 deg Mean anomaly: 101.7996 deg Mean motion: 14.13927629 rev/day Decay rate: 8.9e-07 rev/day^2 Epoch rev: 97261 Checksum: 328
Satellite: NOAA-15 Catalog number: 25338 Epoch time: 13311.52034264 Element set: 941 Inclination: 098.7373 deg RA of node: 301.0395 deg Eccentricity: 0.0011681 Arg of perigee: 074.5703 deg Mean anomaly: 084.2928 deg Mean motion: 14.25286803 rev/day Decay rate: 2.24e-06 rev/day^2 Epoch rev: 80526 Checksum: 288
Satellite: RESURS Catalog number: 25394 Epoch time: 13310.13437946 Element set: 510 Inclination: 098.3821 deg RA of node: 279.2999 deg Eccentricity: 0.0001719 Arg of perigee: 150.9431 deg Mean anomaly: 338.3040 deg Mean motion: 14.24343142 rev/day Decay rate: 1.05e-06 rev/day^2 Epoch rev: 79656 Checksum: 290
Satellite: FENGYUN1 Catalog number: 25730 Epoch time: 13311.47217119 Element set: 4 Inclination: 098.8928 deg RA of node: 269.3425 deg Eccentricity: 0.0028209 Arg of perigee: 011.0481 deg Mean anomaly: 136.0063 deg Mean motion: 14.10852552 rev/day Decay rate: 3.193e-05 rev/day^2 Epoch rev: 74624 Checksum: 273
Satellite: OKEAN-0 Catalog number: 25860 Epoch time: 13311.01086878 Element set: 90 Inclination: 098.0114 deg RA of node: 271.7079 deg Eccentricity: 0.0001977 Arg of perigee: 087.4036 deg Mean anomaly: 339.6430 deg Mean motion: 14.74765307 rev/day Decay rate: 9.26e-06 rev/day^2 Epoch rev: 76940 Checksum: 310
Satellite: NOAA-16 Catalog number: 26536 Epoch time: 13311.38424457 Element set: 430 Inclination: 099.0246 deg RA of node: 005.4365 deg Eccentricity: 0.0011500 Arg of perigee: 093.6117 deg Mean anomaly: 326.3304 deg Mean motion: 14.12939127 rev/day Decay rate: 1.00e-06 rev/day^2 Epoch rev: 67679 Checksum: 275
Satellite: NOAA-17 Catalog number: 27453 Epoch time: 13311.56672578 Element set: 334 Inclination: 098.3117 deg RA of node: 318.0375 deg Eccentricity: 0.0012922 Arg of perigee: 105.2128 deg Mean anomaly: 002.9072 deg Mean motion: 14.24637448 rev/day Decay rate: 2.02e-06 rev/day^2 Epoch rev: 59113 Checksum: 281
Satellite: NOAA-18 Catalog number: 28654 Epoch time: 13311.52841118 Element set: 827 Inclination: 099.1203 deg RA of node: 281.9451 deg Eccentricity: 0.0014682 Arg of perigee: 162.9058 deg Mean anomaly: 334.7067 deg Mean motion: 14.11887935 rev/day Decay rate: 1.16e-06 rev/day^2 Epoch rev: 43628 Checksum: 314
Satellite: NOAA-19 Catalog number: 33591 Epoch time: 13311.57612821 Element set: 998 Inclination: 098.9190 deg RA of node: 252.6008 deg Eccentricity: 0.0014539 Arg of perigee: 028.9896 deg Mean anomaly: 090.2098 deg Mean motion: 14.11577387 rev/day Decay rate: 1.63e-06 rev/day^2 Epoch rev: 24472 Checksum: 332
/EX SB KEPS @ AMSAT $ORB13311.M Orbital Elements 13311.MISC
HR AMSAT ORBITAL ELEMENTS FOR MANNED AND MISCELLANEOUS SATELLITES FROM WA5QGD FORT WORTH,TX November 7, 2013 BID: ORB13311.M TO ALL RADIO AMATEURS BT
Satellite: HUBBLE Catalog number: 20580 Epoch time: 13311.75086219 Element set: 369 Inclination: 028.4714 deg RA of node: 051.3722 deg Eccentricity: 0.0003585 Arg of perigee: 080.8027 deg Mean anomaly: 053.2569 deg Mean motion: 15.04132225 rev/day Decay rate: 3.485e-05 rev/day^2 Epoch rev: 9133 Checksum: 271
Satellite: ISS Catalog number: 25544 Epoch time: 13312.01663314 Element set: 968 Inclination: 051.6498 deg RA of node: 115.7452 deg Eccentricity: 0.0001264 Arg of perigee: 117.3033 deg Mean anomaly: 339.6492 deg Mean motion: 15.49949596 rev/day Decay rate: 4.7720e-04 rev/day^2 Epoch rev: 85701 Checksum: 311
Satellite: CO-58 Catalog number: 28895 Epoch time: 13310.85719954 Element set: 614 Inclination: 097.8515 deg RA of node: 159.0988 deg Eccentricity: 0.0017260 Arg of perigee: 356.7048 deg Mean anomaly: 003.4037 deg Mean motion: 14.61310734 rev/day Decay rate: 1.106e-05 rev/day^2 Epoch rev: 42777 Checksum: 327
Satellite: FALCON Catalog number: 30776 Epoch time: 13310.71746019 Element set: 731 Inclination: 035.4313 deg RA of node: 046.6177 deg Eccentricity: 0.0001115 Arg of perigee: 122.8111 deg Mean anomaly: 004.1781 deg Mean motion: 15.12024655 rev/day Decay rate: 9.691e-05 rev/day^2 Epoch rev: 36699 Checksum: 269
Satellite: MAST Catalog number: 31126 Epoch time: 13310.93878542 Element set: 894 Inclination: 097.8932 deg RA of node: 298.8094 deg Eccentricity: 0.0091976 Arg of perigee: 328.3402 deg Mean anomaly: 059.7513 deg Mean motion: 14.54759458 rev/day Decay rate: 1.183e-05 rev/day^2 Epoch rev: 34807 Checksum: 345
Satellite: CAPE1 Catalog number: 31130 Epoch time: 13310.74268454 Element set: 896 Inclination: 097.9123 deg RA of node: 295.0526 deg Eccentricity: 0.0099640 Arg of perigee: 345.5512 deg Mean anomaly: 014.2841 deg Mean motion: 14.53732325 rev/day Decay rate: 1.740e-05 rev/day^2 Epoch rev: 34748 Checksum: 294
Satellite: COMPASS Catalog number: 32787 Epoch time: 13311.11192655 Element set: 773 Inclination: 097.7348 deg RA of node: 005.8823 deg Eccentricity: 0.0014389 Arg of perigee: 188.2411 deg Mean anomaly: 171.8570 deg Mean motion: 14.86117317 rev/day Decay rate: 3.901e-05 rev/day^2 Epoch rev: 29918 Checksum: 315
Satellite: AAUSAT2 Catalog number: 32788 Epoch time: 13311.14109486 Element set: 757 Inclination: 097.7356 deg RA of node: 006.6616 deg Eccentricity: 0.0013984 Arg of perigee: 187.5230 deg Mean anomaly: 172.5779 deg Mean motion: 14.86632543 rev/day Decay rate: 4.517e-05 rev/day^2 Epoch rev: 29923 Checksum: 334
Satellite: DO-64 Catalog number: 32789 Epoch time: 13311.16302583 Element set: 792 Inclination: 097.7521 deg RA of node: 011.3598 deg Eccentricity: 0.0013531 Arg of perigee: 178.9481 deg Mean anomaly: 205.9266 deg Mean motion: 14.89749075 rev/day Decay rate: 8.601e-05 rev/day^2 Epoch rev: 29940 Checksum: 335
Satellite: CO-66 Catalog number: 32791 Epoch time: 13311.10288190 Element set: 749 Inclination: 097.7349 deg RA of node: 005.0378 deg Eccentricity: 0.0014930 Arg of perigee: 190.4153 deg Mean anomaly: 202.1269 deg Mean motion: 14.85135768 rev/day Decay rate: 3.138e-05 rev/day^2 Epoch rev: 29908 Checksum: 316
Satellite: RS-30 Catalog number: 32953 Epoch time: 13311.81106672 Element set: 361 Inclination: 082.5046 deg RA of node: 338.8812 deg Eccentricity: 0.0017430 Arg of perigee: 280.2215 deg Mean anomaly: 079.6900 deg Mean motion: 12.43038909 rev/day Decay rate: 1.0e-07 rev/day^2 Epoch rev: 24775 Checksum: 275
Satellite: METEOR-M Catalog number: 35865 Epoch time: 13311.21505255 Element set: 964 Inclination: 098.5853 deg RA of node: 359.9943 deg Eccentricity: 0.0003033 Arg of perigee: 035.6782 deg Mean anomaly: 324.4601 deg Mean motion: 14.21896695 rev/day Decay rate: 3.2e-07 rev/day^2 Epoch rev: 21479 Checksum: 310
Satellite: RS-38 Catalog number: 35869 Epoch time: 13311.71569759 Element set: 920 Inclination: 098.5788 deg RA of node: 000.3527 deg Eccentricity: 0.0005168 Arg of perigee: 026.4750 deg Mean anomaly: 333.6687 deg Mean motion: 14.22154014 rev/day Decay rate: 9.3e-07 rev/day^2 Epoch rev: 21489 Checksum: 324
Satellite: JUGNU Catalog number: 37839 Epoch time: 13310.97557292 Element set: 497 Inclination: 019.9601 deg RA of node: 161.5767 deg Eccentricity: 0.0019100 Arg of perigee: 056.1086 deg Mean anomaly: 081.3537 deg Mean motion: 14.12199181 rev/day Decay rate: 5.00e-06 rev/day^2 Epoch rev: 10710 Checksum: 287
Satellite: SRMSAT Catalog number: 37841 Epoch time: 13311.01952744 Element set: 496 Inclination: 019.9706 deg RA of node: 176.1958 deg Eccentricity: 0.0011848 Arg of perigee: 005.1046 deg Mean anomaly: 141.7234 deg Mean motion: 14.10261814 rev/day Decay rate: 4.50e-06 rev/day^2 Epoch rev: 10696 Checksum: 280
Satellite: RAX-2 Catalog number: 37853 Epoch time: 13311.23907557 Element set: 637 Inclination: 101.6984 deg RA of node: 231.1909 deg Eccentricity: 0.0230527 Arg of perigee: 337.0330 deg Mean anomaly: 183.2606 deg Mean motion: 14.85057195 rev/day Decay rate: 1.3555e-04 rev/day^2 Epoch rev: 10966 Checksum: 303
